KV9E Weather Reports


time (UTC)temp
C
wind
direction
speed
KPH
gust
KPH
rain 1hr
cm
rain 24hr
cm
rain mn
cm
humidity
%
barometer
mb
20260906114242 19 174 0.0 0.0 0.00 0.13 0.13 99 1014.0
20260906113737 19 175 0.0 0.0 0.00 0.13 0.13 99 1013.6
20260906113237 19 175 0.0 0.0 0.00 0.13 0.13 99 1013.7
20260906112731 19 177 0.0 0.0 0.00 0.13 0.13 99 1013.6
20260906112227 19 178 0.0 0.0 0.00 0.13 0.13 99 1013.5
20260906111721 19 180 0.0 0.0 0.00 0.13 0.13 99 1013.3
20260906111216 19 177 0.0 0.0 0.00 0.13 0.13 99 1013.3
20260906110711 19 177 0.0 0.0 0.00 0.13 0.13 99 1013.4
20260906110207 19 179 0.0 0.0 0.00 0.13 0.13 99 1013.2
20260906105706 19 179 0.0 0.0 0.00 0.13 0.13 99 1013.2
20260906105202 19 177 0.0 0.0 0.00 0.13 0.13 99 1013.4
20260906104701 19 177 0.0 0.0 0.00 0.13 0.13 99 1013.3
20260906104200 20 177 0.0 0.0 0.00 0.13 0.13 99 1013.1
20260906103658 20 176 0.0 0.0 0.00 0.13 0.13 99 1013.2
20260906103153 20 174 0.0 0.0 0.00 0.13 0.13 99 1013.2
20260906102649 20 174 0.0 0.0 0.00 0.13 0.13 99 1013.4
20260906102143 20 171 0.0 0.0 0.00 0.13 0.13 99 1013.4
20260906101642 20 168 0.0 3.2 0.00 0.13 0.13 99 1013.1
20260906101137 20 163 0.0 3.2 0.00 0.13 0.13 99 1013.1
20260906100633 20 175 0.0 3.2 0.00 0.13 0.13 99 1013.1
20260906100128 20 176 0.0 0.0 0.00 0.13 0.13 99 1013.2
20260906095622 20 153 0.0 0.0 0.00 0.13 0.13 99 1013.1
20260906095118 20 170 0.0 0.0 0.00 0.13 0.13 99 1013.2
20260906094617 20 175 0.0 0.0 0.00 0.13 0.13 99 1013.2
20260906094113 20 169 0.0 0.0 0.00 0.13 0.13 99 1013.2
20260906093609 20 177 0.0 0.0 0.00 0.13 0.13 99 1013.1
20260906093103 20 178 0.0 0.0 0.00 0.13 0.13 99 1013.3
20260906092558 20 179 0.0 0.0 0.00 0.13 0.13 99 1013.1
20260906092053 20 170 0.0 0.0 0.00 0.13 0.13 99 1013.3
20260906091549 20 176 0.0 0.0 0.00 0.13 0.13 99 1013.2
20260906091045 20 173 0.0 0.0 0.00 0.13 0.13 99 1013.2
20260906090545 20 176 0.0 0.0 0.00 0.13 0.13 99 1012.9
20260906090040 20 175 0.0 0.0 0.00 0.13 0.13 99 1013.0
20260906085539 20 177 0.0 0.0 0.00 0.13 0.13 99 1013.1
20260906085038 20 177 0.0 0.0 0.00 0.13 0.13 99 1013.1
20260906084533 20 167 0.0 0.0 0.00 0.13 0.13 99 1013.2
20260906084032 20 177 0.0 0.0 0.00 0.13 0.13 99 1013.3
20260906083528 20 177 0.0 0.0 0.00 0.13 0.13 99 1013.3
20260906083028 20 169 0.0 0.0 0.00 0.13 0.13 99 1013.2
20260906082523 20 176 0.0 0.0 0.00 0.13 0.13 99 1013.2
20260906082019 20 178 0.0 0.0 0.00 0.13 0.13 99 1013.2
20260906081514 20 177 0.0 0.0 0.00 0.13 0.13 99 1013.1
20260906081010 20 177 0.0 0.0 0.00 0.13 0.13 99 1013.2
20260906080506 20 165 0.0 0.0 0.00 0.13 0.13 99 1013.0
20260906080002 20 164 3.2 3.2 0.00 0.13 0.13 99 1013.2
20260906075456 20 142 1.6 3.2 0.00 0.13 0.13 99 1013.1
20260906074951 20 149 4.8 4.8 0.00 0.13 0.13 99 1012.8
20260906074445 20 152 0.0 0.0 0.00 0.13 0.13 99 1013.2
20260906073943 20 142 0.0 3.2 0.00 0.13 0.13 99 1012.9
20260906073439 20 173 0.0 0.0 0.00 0.13 0.13 99 1013.0
20260906072935 20 171 0.0 0.0 0.00 0.13 0.13 99 1012.9
20260906072430 20 177 0.0 0.0 0.00 0.13 0.13 99 1013.0
20260906071925 20 172 0.0 0.0 0.00 0.13 0.13 99 1012.7
20260906071416 20 172 0.0 0.0 0.00 0.13 0.13 99 1012.7
20260906070912 20 171 0.0 0.0 0.00 0.13 0.13 99 1012.7
20260906070408 20 166 0.0 0.0 0.00 0.13 0.13 99 1012.5
20260906065903 20 169 0.0 0.0 0.00 0.13 0.13 99 1012.8
20260906065356 20 166 1.6 3.2 0.00 0.13 0.13 99 1012.7
20260906064853 20 147 3.2 3.2 0.00 0.13 0.13 99 1013.0
20260906064348 20 150 1.6 3.2 0.00 0.13 0.13 99 1013.0
20260906063843 20 154 3.2 3.2 0.00 0.13 0.13 99 1013.2
20260906063338 20 151 1.6 3.2 0.00 0.13 0.13 99 1013.1
20260906062833 20 164 0.0 0.0 0.00 0.13 0.13 99 1013.2
20260906062332 20 174 0.0 0.0 0.00 0.13 0.13 99 1013.2
20260906061828 20 175 0.0 0.0 0.00 0.13 0.13 99 1013.3
20260906061324 20 167 0.0 0.0 0.00 0.13 0.13 99 1013.6
20260906060819 20 173 0.0 0.0 0.00 0.13 0.13 99 1014.0
20260906060317 20 157 0.0 0.0 0.00 0.13 0.13 99 1013.7
20260906055812 20 174 0.0 0.0 0.00 0.13 0.13 99 1013.7
20260906055308 20 189 0.0 0.0 0.00 0.13 0.13 99 1014.1
20260906054803 21 168 0.0 0.0 0.00 0.13 0.13 99 1013.8
20260906054258 21 188 3.2 3.2 0.13 0.13 0.13 99 1014.4
20260906053754 21 173 0.0 0.0 0.13 0.13 0.13 99 1014.4
20260906053250 21 148 1.6 3.2 0.00 0.10 0.10 99 1014.1
20260906052745 21 188 0.0 0.0 0.18 0.10 0.10 99 1013.5
20260906052241 21 186 0.0 0.0 0.30 0.10 0.10 99 1013.6
20260906051738 21 193 0.0 0.0 0.30 0.10 0.10 99 1013.8
20260906051237 21 192 0.0 0.0 0.43 0.08 0.08 99 1014.0
20260906050733 21 195 1.6 3.2 0.48 0.05 0.05 99 1014.4
20260906050228 21 183 0.0 0.0 0.61 0.00 0.00 99 1014.7
20260906045726 22 178 0.0 0.0 0.61 0.10 0.10 99 1015.1
20260906045222 22 185 0.0 0.0 0.18 0.03 0.03 95 1015.0
20260906044717 23 215 3.2 3.2 0.00 0.00 0.00 93 1014.7
20260906044212 23 198 1.6 3.2 0.00 0.00 0.00 92 1014.5
20260906043709 23 216 1.6 3.2 0.00 0.00 0.00 92 1014.3
20260906043204 22 266 1.6 3.2 0.00 0.00 0.00 93 1014.2
20260906042703 22 192 3.2 4.8 0.00 0.00 0.00 94 1014.3
20260906042157 22 307 0.0 3.2 0.00 0.00 0.00 98 1014.3
20260906041653 22 216 1.6 3.2 0.00 0.00 0.00 98 1013.5
20260906041148 22 164 0.0 0.0 0.00 0.00 0.00 98 1013.2
20260906040643 23 160 0.0 0.0 0.00 0.00 0.00 96 1013.5
20260906040139 23 161 0.0 0.0 0.00 0.00 0.00 96 1013.6
20260906035634 23 192 0.0 0.0 0.00 0.00 0.00 96 1013.8
20260906035130 23 192 0.0 0.0 0.00 0.00 0.00 96 1014.1
20260906034629 23 182 0.0 0.0 0.00 0.00 0.00 95 1014.3
20260906034124 23 182 0.0 0.0 0.00 0.00 0.00 95 1014.2
20260906033620 23 181 0.0 0.0 0.00 0.00 0.00 96 1014.1
20260906033114 23 181 0.0 0.0 0.00 0.00 0.00 95 1014.0
20260906032612 23 181 0.0 0.0 0.00 0.00 0.00 95 1014.1
20260906032111 23 160 0.0 3.2 0.00 0.00 0.00 95 1013.7
20260906031606 23 166 0.0 0.0 0.00 0.00 0.00 95 1013.4
20260906031102 23 149 0.0 3.2 0.00 0.00 0.00 94 1013.8
20260906030601 23 179 0.0 0.0 0.00 0.00 0.00 93 1013.5
20260906030055 23 192 0.0 0.0 0.00 0.00 0.00 93 1013.5
20260906025550 23 171 0.0 0.0 0.00 0.00 0.00 93 1013.6
20260906025049 23 169 0.0 0.0 0.00 0.00 0.00 93 1014.1
20260906024543 23 163 0.0 0.0 0.00 0.00 0.00 92 1013.4
20260906024038 23 171 0.0 0.0 0.00 0.00 0.00 92 1013.4
20260906023534 23 170 0.0 0.0 0.00 0.00 0.00 92 1013.5
20260906023029 23 173 0.0 0.0 0.00 0.00 0.00 92 1013.1
20260906022523 23 173 0.0 0.0 0.00 0.00 0.00 91 1013.1
20260906022013 23 173 0.0 0.0 0.00 0.00 0.00 91 1013.3
20260906021508 23 171 0.0 0.0 0.00 0.00 0.00 91 1012.9
20260906021002 23 171 0.0 0.0 0.00 0.00 0.00 91 1012.6
20260906020456 23 169 0.0 0.0 0.00 0.00 0.00 90 1012.7
20260906015956 24 150 1.6 3.2 0.00 0.00 0.00 90 1012.5
20260906015455 23 170 0.0 0.0 0.00 0.00 0.00 91 1012.8
20260906014955 23 161 0.0 0.0 0.00 0.00 0.00 92 1012.6
20260906014455 23 173 0.0 0.0 0.00 0.00 0.00 92 1012.8
20260906013945 23 168 0.0 0.0 0.00 0.00 0.00 92 1012.7
20260906013440 23 172 0.0 0.0 0.00 0.00 0.00 92 1012.6
20260906012936 24 168 0.0 0.0 0.00 0.00 0.00 90 1012.6
20260906012431 25 169 0.0 0.0 0.00 0.00 0.00 86 1012.5
20260906011930 25 167 0.0 0.0 0.00 0.00 0.00 85 1012.4
20260906011426 25 173 0.0 0.0 0.00 0.00 0.00 85 1012.5
20260906010921 25 179 0.0 0.0 0.00 0.00 0.00 84 1012.4
20260906010416 25 177 0.0 0.0 0.00 0.00 0.00 85 1012.6
20260906005912 25 177 0.0 0.0 0.00 0.00 0.00 86 1012.7
20260906005412 25 178 0.0 0.0 0.00 0.00 0.00 87 1012.8
20260906004904 25 175 0.0 0.0 0.00 0.00 0.00 88 1012.8
20260906004359 25 175 0.0 0.0 0.00 0.00 0.00 89 1012.9
20260906003855 25 179 0.0 0.0 0.00 0.00 0.00 89 1012.9
20260906003350 25 171 0.0 0.0 0.00 0.00 0.00 88 1013.0
20260906002845 25 167 0.0 0.0 0.00 0.00 0.00 85 1012.8
20260906002345 25 160 0.0 0.0 0.00 0.00 0.00 85 1012.9
20260906001841 25 181 0.0 0.0 0.00 0.00 0.00 85 1012.9
20260906001336 26 177 0.0 0.0 0.00 0.00 0.00 84 1013.0
20260906000831 26 177 0.0 0.0 0.00 0.00 0.00 84 1013.0
20260906000326 26 183 0.0 0.0 0.00 0.00 0.00 83 1012.7
20260905235826 26 174 0.0 0.0 0.00 0.00 0.00 83 1012.8
20260905235326 26 180 0.0 0.0 0.00 0.00 0.00 82 1012.8
20260905234821 26 181 0.0 0.0 0.00 0.00 0.00 81 1013.0
20260905234316 26 175 0.0 0.0 0.00 0.00 0.00 80 1012.7
20260905233811 27 178 0.0 0.0 0.00 0.00 0.00 79 1012.4
20260905233306 27 177 0.0 0.0 0.00 0.00 0.00 78 1012.5
20260905232805 27 175 0.0 0.0 0.00 0.00 0.00 77 1012.2
20260905232305 27 171 0.0 0.0 0.00 0.00 0.00 76 1012.4
20260905231757 27 172 0.0 0.0 0.00 0.00 0.00 75 1012.5
20260905231251 28 186 0.0 0.0 0.00 0.00 0.00 76 1012.6
20260905230742 28 169 0.0 0.0 0.00 0.00 0.00 72 1012.5
20260905230239 28 175 0.0 0.0 0.00 0.00 0.00 73 1012.6
20260905225733 28 172 0.0 0.0 0.00 0.00 0.00 72 1012.6
20260905225229 29 180 0.0 0.0 0.00 0.00 0.00 71 1012.7
20260905224727 30 177 0.0 0.0 0.00 0.00 0.00 68 1012.5
20260905224223 30 183 0.0 0.0 0.00 0.00 0.00 68 1012.5
20260905223719 30 186 0.0 0.0 0.00 0.00 0.00 66 1012.4
20260905223216 31 193 0.0 0.0 0.00 0.00 0.00 66 1012.7
20260905222712 31 197 0.0 0.0 0.00 0.00 0.00 65 1012.8
20260905222210 31 187 0.0 0.0 0.00 0.00 0.00 63 1012.4
20260905221706 31 189 0.0 0.0 0.00 0.00 0.00 65 1012.6
20260905221203 30 189 0.0 0.0 0.00 0.00 0.00 67 1012.6
20260905220658 31 173 3.2 3.2 0.00 0.00 0.00 68 1012.8
20260905220155 31 192 0.0 0.0 0.00 0.00 0.00 65 1012.8
20260905215649 30 197 0.0 0.0 0.00 0.00 0.00 65 1012.7
20260905215144 30 193 0.0 0.0 0.00 0.00 0.00 65 1012.8
20260905214640 30 210 0.0 0.0 0.00 0.00 0.00 65 1012.8
20260905214135 29 187 0.0 0.0 0.00 0.00 0.00 66 1012.8
20260905213631 29 173 0.0 0.0 0.00 0.00 0.00 68 1012.8
20260905213126 29 191 0.0 0.0 0.00 0.00 0.00 63 1012.7
20260905212621 27 191 0.0 0.0 0.00 0.00 0.00 67 1013.1
20260905212121 27 178 0.0 0.0 0.00 0.00 0.00 70 1013.0
20260905211616 27 173 0.0 0.0 0.00 0.00 0.00 70 1013.1
20260905211111 27 173 0.0 0.0 0.00 0.00 0.00 70 1013.0
20260905210607 27 161 1.6 3.2 0.00 0.00 0.00 71 1013.0
20260905205601 27 172 0.0 0.0 0.00 0.00 0.00 68 1013.1
20260905205100 28 166 0.0 0.0 0.00 0.00 0.00 72 1012.9
20260905204555 28 176 0.0 0.0 0.00 0.00 0.00 68 1012.9
20260905204050 28 174 0.0 0.0 0.00 0.00 0.00 69 1013.3
20260905203550 29 172 0.0 0.0 0.00 0.00 0.00 65 1013.3
20260905203045 31 188 0.0 0.0 0.00 0.00 0.00 55 1013.5
20260905202541 30 194 0.0 0.0 0.00 0.00 0.00 54 1013.4
20260905202036 30 193 0.0 0.0 0.00 0.00 0.00 56 1013.5
20260905201532 30 211 0.0 0.0 0.00 0.00 0.00 57 1013.7
20260905201031 28 187 0.0 0.0 0.00 0.00 0.00 64 1013.4
20260905200526 28 186 0.0 0.0 0.00 0.00 0.00 60 1013.4
20260905200020 26 186 0.0 0.0 0.00 0.00 0.00 66 1013.6
20260905195515 25 190 0.0 0.0 0.00 0.00 0.00 72 1013.5
20260905195010 24 193 0.0 0.0 0.00 0.00 0.00 79 1013.8
20260905194509 24 207 0.0 0.0 0.00 0.00 0.00 80 1013.7
20260905194003 24 216 0.0 3.2 0.00 0.00 0.00 79 1013.8
20260905193458 24 183 0.0 0.0 0.00 0.00 0.00 80 1013.7
20260905192954 25 203 3.2 4.8 0.00 0.00 0.00 79 1014.0
20260905192449 25 238 3.2 4.8 0.00 0.00 0.00 78 1014.2
20260905191945 25 177 0.0 0.0 0.00 0.00 0.00 77 1014.4
20260905191443 26 181 0.0 0.0 0.00 0.00 0.00 77 1014.2
20260905190937 27 174 0.0 0.0 0.00 0.00 0.00 78 1014.4
20260905190436 27 180 0.0 0.0 0.00 0.00 0.00 78 1014.5
20260905185934 28 236 1.6 3.2 0.00 0.00 0.00 75 1014.5
20260905185430 28 66 1.6 3.2 0.00 0.00 0.00 73 1014.3
20260905184928 28 174 0.0 0.0 0.00 0.00 0.00 72 1014.2
20260905184423 29 200 0.0 0.0 0.00 0.00 0.00 71 1014.4
20260905183922 30 187 0.0 0.0 0.00 0.00 0.00 69 1014.3
20260905183416 30 180 0.0 0.0 0.00 0.00 0.00 68 1014.1
20260905182912 31 177 0.0 0.0 0.00 0.00 0.00 63 1014.3
20260905182410 32 150 6.4 11.3 0.00 0.00 0.00 62 1014.1
20260905181906 31 170 3.2 4.8 0.00 0.00 0.00 63 1014.3
20260905181401 31 189 6.4 8.0 0.00 0.00 0.00 62 1014.3
20260905180859 31 237 1.6 3.2 0.00 0.00 0.00 62 1014.4
20260905180355 31 175 0.0 0.0 0.00 0.00 0.00 61 1014.6
20260905175850 33 177 3.2 4.8 0.00 0.00 0.00 60 1014.5
20260905175344 32 201 0.0 0.0 0.00 0.00 0.00 60 1014.6
20260905174839 31 169 3.2 4.8 0.00 0.00 0.00 62 1014.5
20260905174335 31 180 0.0 0.0 0.00 0.00 0.00 61 1014.5
20260905173831 31 210 1.6 3.2 0.00 0.00 0.00 61 1014.6
20260905173327 31 155 0.0 3.2 0.00 0.00 0.00 62 1014.6
20260905172826 31 232 1.6 3.2 0.00 0.00 0.00 63 1014.6
20260905172324 31 175 3.2 3.2 0.00 0.00 0.00 63 1014.8
20260905171821 31 172 3.2 4.8 0.00 0.00 0.00 62 1014.7
20260905171317 31 192 0.0 3.2 0.00 0.00 0.00 63 1014.9
20260905170814 30 148 3.2 4.8 0.00 0.00 0.00 64 1015.0
20260905170309 30 285 3.2 8.0 0.00 0.00 0.00 68 1014.9
20260905165807 30 202 0.0 0.0 0.00 0.00 0.00 70 1015.0
20260905165258 30 181 1.6 3.2 0.00 0.00 0.00 70 1015.2
20260905164758 30 273 0.0 3.2 0.00 0.00 0.00 69 1015.0
20260905164258 30 131 4.8 4.8 0.00 0.00 0.00 70 1015.0
20260905163748 30 181 0.0 0.0 0.00 0.00 0.00 69 1015.1
20260905163244 29 172 0.0 0.0 0.00 0.00 0.00 71 1015.4
20260905162740 29 211 3.2 4.8 0.00 0.00 0.00 70 1015.4
20260905162240 29 185 0.0 0.0 0.00 0.00 0.00 73 1015.6
20260905161734 28 168 0.0 0.0 0.00 0.00 0.00 73 1015.4
20260905161233 28 177 0.0 0.0 0.00 0.00 0.00 74 1015.4
20260905160732 28 188 0.0 0.0 0.00 0.00 0.00 74 1015.6
20260905160232 28 186 0.0 0.0 0.00 0.00 0.00 75 1015.6
20260905155727 28 146 1.6 3.2 0.00 0.00 0.00 75 1015.7
20260905155225 27 186 0.0 0.0 0.00 0.00 0.00 76 1015.7
20260905154719 27 194 1.6 3.2 0.00 0.00 0.00 76 1015.5
20260905154215 27 185 0.0 0.0 0.00 0.00 0.00 78 1015.7
20260905153711 27 190 0.0 0.0 0.00 0.00 0.00 77 1015.7
20260905153207 27 300 3.2 3.2 0.00 0.00 0.00 78 1015.7
20260905152701 27 180 0.0 0.0 0.00 0.00 0.00 80 1015.7
20260905152155 26 211 0.0 0.0 0.00 0.00 0.00 80 1015.5
20260905151650 26 228 3.2 3.2 0.00 0.00 0.00 79 1015.7
20260905151146 26 190 0.0 0.0 0.00 0.00 0.00 81 1015.5
20260905150641 26 211 0.0 0.0 0.00 0.00 0.00 79 1015.8
20260905150139 26 190 0.0 3.2 0.00 0.00 0.00 82 1015.4
20260905145637 26 159 1.6 3.2 0.00 0.00 0.00 82 1015.8
20260905145137 25 210 0.0 0.0 0.00 0.00 0.00 83 1015.9
20260905144627 25 208 4.8 4.8 0.00 0.00 0.00 82 1015.7
20260905144125 25 186 0.0 0.0 0.00 0.00 0.00 86 1015.8
20260905143620 25 192 0.0 0.0 0.00 0.00 0.00 85 1015.8
20260905143115 25 198 0.0 0.0 0.00 0.00 0.00 84 1015.8
20260905142614 26 179 0.0 0.0 0.00 0.00 0.00 83 1015.7
20260905142113 25 161 0.0 0.0 0.00 0.00 0.00 83 1015.6
20260905141613 25 161 0.0 0.0 0.00 0.00 0.00 84 1015.9
20260905141110 25 159 0.0 0.0 0.00 0.00 0.00 84 1015.9
20260905140604 25 162 0.0 0.0 0.00 0.00 0.00 85 1015.9
20260905140103 24 162 0.0 0.0 0.00 0.00 0.00 84 1015.7
20260905135559 23 162 0.0 0.0 0.00 0.00 0.00 86 1016.0
20260905135054 23 158 0.0 0.0 0.00 0.00 0.00 88 1015.9
20260905134549 23 164 0.0 0.0 0.00 0.00 0.00 88 1015.9
20260905134047 23 163 0.0 0.0 0.00 0.00 0.00 88 1016.1
20260905133543 23 163 0.0 0.0 0.00 0.00 0.00 87 1016.0
20260905133043 23 163 0.0 0.0 0.00 0.00 0.00 88 1016.0
20260905132543 23 163 0.0 0.0 0.00 0.00 0.00 89 1016.0
20260905132038 23 160 0.0 0.0 0.00 0.00 0.00 88 1015.9
20260905131533 23 165 0.0 0.0 0.00 0.00 0.00 87 1016.1
20260905131028 23 163 0.0 0.0 0.00 0.00 0.00 84 1016.2
20260905130527 23 162 0.0 0.0 0.00 0.00 0.00 85 1016.0
20260905130023 23 162 0.0 0.0 0.00 0.00 0.00 86 1016.0
20260905125522 23 162 0.0 0.0 0.00 0.00 0.00 85 1016.1
20260905125018 23 162 0.0 0.0 0.00 0.00 0.00 86 1016.1
20260905124514 23 162 0.0 0.0 0.00 0.00 0.00 86 1016.4
20260905124010 23 162 0.0 0.0 0.00 0.00 0.00 85 1015.9
20260905123505 23 161 0.0 0.0 0.00 0.00 0.00 85 1016.4
20260905123001 23 161 0.0 0.0 0.00 0.00 0.00 88 1016.4
20260905122455 23 161 0.0 0.0 0.00 0.00 0.00 88 1016.1
20260905121950 23 161 0.0 0.0 0.00 0.00 0.00 86 1016.0
20260905121446 23 161 0.0 0.0 0.00 0.00 0.00 87 1016.0
20260905120945 23 161 0.0 0.0 0.00 0.00 0.00 87 1015.8
20260905120439 23 161 0.0 0.0 0.00 0.00 0.00 86 1015.8
20260905115934 23 161 0.0 0.0 0.00 0.00 0.00 85 1015.9
20260905115433 23 161 0.0 0.0 0.00 0.00 0.00 84 1015.8
20260905114923 23 162 0.0 0.0 0.00 0.00 0.00 83 1015.5